[[{"header":{"parameterUnit":"m.s-1","parameterCategory":1,"la1":30.2991,"la2":30.254,"lo1":-89.0895,"lo2":-89.0444,"dy":0.0017,"dx":0.0017,"nx":28,"ny":28,"refTime":"2024-03-17T03:00:00:Z","depth":0,"parameterNumber":2,"parameterNumberName":"U-component_of_WINDS"},"data":[0,0,0,0,0,0,0,0,0,0,0,0,0,0,0,0,0,0,0,0,0,0,0,0,0,0,0,0,0,0,0,0,0,0,0,0,0,0,0,0,0,0,0,0,0,0,0,0,0,0,0,0,0,0,0,0,0,0,0.0045,0.0044,0,-0.0098,-0.01,-0.0102,-0.0133,-0.0132,-0.0131,-0.013,-0.0283,-0.0288,-0.0293,0,0,0,0,0,0,0,0,0,0,0,0,0,0.0287,0.0282,0.0045,0.0044,0.0042,-0.0098,-0.01,-0.0102,-0.0133,-0.0132,-0.0131,-0.0129,-0.0282,-0.0288,-0.0294,0,0,0,0,0,0,0,0,0,0,0,0,0,0.0166,0.0281,0.0046,0.001,0.0005,-0.0098,-0.01,-0.0103,-0.0133,-0.0132,-0.013,-0.0129,-0.028,-0.0287,-0.0295,-0.0374,0,0,-0.0318,-0.0321,0,0,0,0,0,0,0,0,0.0173,0.0157,0.0017,0.0012,0.0007,-0.0096,-0.0071,-0.0194,-0.0134,-0.0081,-0.013,-0.0128,-0.0223,-0.0235,-0.0266,-0.0381,-0.0387,-0.0319,-0.0323,-0.0327,-0.0329,0,0,0,0,0,0,0,0.0181,0.0163,-0.0012,0.0015,0.0008,-0.0002,-0.0017,-0.0095,-0.0159,-0.0086,-0.0088,-0.0104,-0.0225,-0.0258,-0.027,-0.039,-0.0318,-0.0325,-0.033,-0.0333,-0.0579,-0.0581,0,0,0,0,0,0,0.0197,0.0171,-0.0007,-0.0016,0.0096,-0.0007,-0.0024,-0.0065,-0.0159,-0.0171,-0.0106,-0.0105,-0.0246,-0.0261,-0.0275,-0.0376,-0.0327,-0.0334,-0.0338,-0.0577,-0.058,-0.0582,0,0,0,0,0,0,0.0202,0.0182,-0.0001,0.0076,0.0053,-0.0013,-0.0058,-0.0069,-0.0101,-0.0174,-0.0186,-0.0127,-0.0245,-0.0264,-0.0349,-0.0381,-0.0337,-0.0344,-0.0575,-0.0578,-0.0581,-0.0576,0,0,0,0,0,0,0.0209,0.0184,0.0155,0.0076,0.0049,-0.0071,-0.006,-0.0072,-0.0114,-0.0115,-0.0197,-0.0209,-0.0246,-0.0337,-0.0357,-0.0391,-0.035,-0.0573,-0.0576,-0.058,-0.0573,-0.0578,-0.0582,0,0,0,0,0,0.0218,0.0161,0.0153,0.0132,0.0011,-0.0073,-0.0089,-0.0128,-0.0116,-0.0147,-0.0194,-0.0207,-0.0374,-0.0346,-0.0368,-0.0405,-0.0571,-0.0575,-0.058,-0.0571,-0.0577,-0.0582,0,0,0,0,0,0,0.0235,0.015,0.014,0.0057,-0.0,-0.0078,-0.0118,-0.0132,-0.0195,-0.0194,-0.0241,-0.026,-0.0342,-0.0382,-0.0349,-0.0487,-0.0472,-0.0481,-0.0459,-0.0465,-0.0469,-0.0459,-0.0356,0,0,0,0,0,0.0229,0.0171,0.0099,0.0031,0.0003,-0.0052,-0.009,-0.0115,-0.0177,-0.0202,-0.0254,-0.0316,-0.0382,-0.0425,-0.049,-0.0579,-0.0598,-0.0615,-0.0619,-0.0623,-0.0631,-0.0683,-0.0691,-0.0597,-0.0596,-0.0596,0,0,0.0216,0.0162,0.0128,0.0033,-0.0014,-0.0076,-0.0072,-0.0138,-0.0185,-0.0212,-0.0296,-0.0336,-0.0408,-0.0495,-0.0536,-0.0531,-0.0661,-0.0628,-0.063,-0.0637,-0.0688,-0.0697,-0.0705,-0.06,-0.0599,-0.0599,0,0,0.016,0.0115,0.0052,0.0006,-0.0065,-0.0101,-0.0116,-0.0192,-0.0219,-0.0303,-0.0325,-0.0383,-0.0496,-0.0546,-0.0587,-0.0662,-0.0677,-0.0682,-0.0706,-0.0756,-0.0764,-0.0771,-0.08,-0.081,-0.0689,-0.0689,-0.0689,0,0.0151,0.0059,0.0022,-0.0043,-0.0085,-0.011,-0.0175,-0.0219,-0.0308,-0.0337,-0.0329,-0.0472,-0.0522,-0.0622,-0.0641,-0.0672,-0.0692,-0.0674,-0.0759,-0.0767,-0.0774,-0.0802,-0.0813,-0.069,-0.069,-0.069,-0.069,0,0.0051,-0.0013,-0.0055,-0.0138,-0.0185,-0.0249,-0.0298,-0.0341,-0.0362,-0.04,-0.0486,-0.0546,-0.0625,-0.065,-0.0672,-0.0754,-0.0749,-0.0749,-0.0736,-0.0782,-0.081,-0.0821,-0.069,-0.069,-0.069,-0.069,0,0,-0.0,-0.0103,-0.0118,-0.0157,-0.0236,-0.0288,-0.0354,-0.0429,-0.0466,-0.0526,-0.0585,-0.068,-0.0681,-0.0727,-0.0754,-0.0798,-0.0856,-0.0793,-0.0796,-0.0805,-0.0954,-0.0955,-0.0966,-0.0866,-0.0868,-0.087,-0.0949,0,-0.0068,-0.0185,-0.0221,-0.032,-0.0381,-0.0405,-0.0463,-0.052,-0.0557,-0.0616,-0.0658,-0.0725,-0.072,-0.0749,-0.0792,-0.084,-0.0887,-0.0834,-0.0924,-0.0926,-0.0907,-0.0981,-0.0982,-0.1053,-0.0959,-0.0961,-0.0963,0,-0.0163,-0.0224,-0.0328,-0.0401,-0.0428,-0.0479,-0.0552,-0.0606,-0.0672,-0.0696,-0.0747,-0.0771,-0.0843,-0.0823,-0.0926,-0.0889,-0.0927,-0.0956,-0.096,-0.0972,-0.0949,-0.0997,-0.1077,-0.1089,-0.098,-0.0978,-0.0977,0,-0.0193,-0.0301,-0.0378,-0.041,-0.0496,-0.0532,-0.057,-0.0633,-0.0676,-0.074,-0.0769,-0.084,-0.0881,-0.0936,-0.098,-0.0961,-0.1079,-0.1063,-0.1104,-0.1103,-0.113,-0.1128,-0.122,-0.115,-0.115,-0.115,-0.115,0,-0.0266,-0.033,-0.0392,-0.044,-0.0513,-0.0554,-0.0626,-0.0665,-0.0721,-0.0779,-0.0804,-0.0858,-0.0911,-0.0973,-0.1007,-0.1088,-0.1105,-0.1129,-0.1138,-0.1128,-0.1125,-0.1156,-0.1153,-0.1153,-0.1152,-0.1152,-0.1151,0,-0.0313,-0.0357,-0.0443,-0.0517,-0.0537,-0.0588,-0.0652,-0.0701,-0.0738,-0.0811,-0.0831,-0.0891,-0.0965,-0.1013,-0.1107,-0.1131,-0.122,-0.1226,-0.1197,-0.1202,-0.1242,-0.1238,-0.1358,-0.1377,-0.1292,-0.1293,-0.1294,0,-0.0358,-0.0408,-0.0487,-0.0526,-0.0564,-0.0627,-0.0671,-0.0713,-0.0758,-0.0836,-0.0876,-0.0951,-0.1013,-0.1131,-0.1184,-0.1257,-0.1267,-0.1304,-0.1279,-0.1268,-0.1271,-0.1268,-0.1275,-0.1309,-0.131,-0.131,-0.1311,0,-0.0435,-0.0454,-0.0515,-0.0584,-0.0635,-0.0692,-0.0749,-0.078,-0.0833,-0.0882,-0.0957,-0.1005,-0.1101,-0.1177,-0.1254,-0.1296,-0.1314,-0.1318,-0.1332,-0.1324,-0.1306,-0.1319,-0.1211,-0.1316,-0.1315,-0.1315,-0.1315,-0.1314,-0.0484,-0.053,-0.0593,-0.066,-0.0707,-0.076,-0.0809,-0.0853,-0.0915,-0.0995,-0.1017,-0.1096,-0.1161,-0.1267,-0.131,-0.1374,-0.137,-0.1389,-0.1395,-0.1399,-0.1401,-0.1293,-0.1388,-0.1388,-0.1388,-0.1387,-0.1387,0,-0.0564,-0.0605,-0.0667,-0.0745,-0.0799,-0.0807,-0.0871,-0.0916,-0.0985,-0.1043,-0.1103,-0.119,-0.1263,-0.1322,-0.1398,-0.1438,-0.1448,-0.1457,-0.1456,-0.1466,-0.1399,-0.1381,-0.1448,-0.1447,-0.1447,-0.1447,-0.1447,-0.1447,-0.0612,-0.0691,-0.0717,-0.082,-0.0861,-0.0937,-0.0973,-0.1023,-0.107,-0.1165,-0.1225,-0.1262,-0.1322,-0.1402,-0.147,-0.1486,-0.1514,-0.1521,-0.1539,-0.1477,-0.147,-0.1464,-0.1447,-0.1526,-0.1526,-0.1601,-0.1601,-0.1602]},{"header":{"parameterUnit":"m.s-1","parameterCategory":1,"la1":30.2991,"la2":30.254,"lo1":-89.0895,"lo2":-89.0444,"dy":0.0017,"dx":0.0017,"nx":28,"ny":28,"refTime":"2024-03-17T03:00:00:Z","depth":0,"parameterNumber":3,"parameterNumberName":"V-component_of_WINDS"},"data":[0,0,0,0,0,0,0,0,0,0,0,0,0,0,0,0,0,0,0,0,0,0,0,0,0,0,0,0,0,0,0,0,0,0,0,0,0,0,0,0,0,0,0,0,0,0,0,0,0,0,0,0,0,0,0,0,0,0,-6.4803,-6.4803,0,-6.4829,-6.483,-6.483,-6.4747,-6.4744,-6.4742,-6.4739,-6.4763,-6.4766,-6.4769,0,0,0,0,0,0,0,0,0,0,0,0,0,-6.4677,-6.468,-6.4803,-6.4803,-6.4804,-6.4829,-6.483,-6.483,-6.4747,-6.4744,-6.4741,-6.4738,-6.4762,-6.4765,-6.4769,0,0,0,0,0,0,0,0,0,0,0,0,0,-6.472,-6.4681,-6.4803,-6.4765,-6.4762,-6.4829,-6.483,-6.483,-6.4748,-6.4744,-6.474,-6.4737,-6.4761,-6.4765,-6.4769,-6.4872,0,0,-6.4783,-6.4785,0,0,0,0,0,0,0,0,-6.4718,-6.4725,-6.4771,-6.4768,-6.4765,-6.4781,-6.4794,-6.4844,-6.4749,-6.4753,-6.4739,-6.4735,-6.4772,-6.4775,-6.4788,-6.4873,-6.4874,-6.4783,-6.4786,-6.4788,-6.4789,0,0,0,0,0,0,0,-6.4715,-6.4723,-6.4813,-6.4771,-6.4768,-6.4746,-6.4748,-6.4803,-6.4783,-6.4753,-6.4747,-6.4751,-6.4769,-6.4784,-6.4788,-6.4875,-6.4783,-6.4787,-6.479,-6.4792,-6.5045,-6.5049,0,0,0,0,0,0,-6.4717,-6.4721,-6.4812,-6.4814,-6.4732,-6.4751,-6.4754,-6.4779,-6.4782,-6.4779,-6.4754,-6.4747,-6.4778,-6.4783,-6.4788,-6.4909,-6.4788,-6.4792,-6.4795,-6.5041,-6.5046,-6.5051,0,0,0,0,0,0,-6.4715,-6.4726,-6.4811,-6.4766,-6.4775,-6.4758,-6.4787,-6.4782,-6.4797,-6.4784,-6.4779,-6.4773,-6.4775,-6.4782,-6.4852,-6.4908,-6.4794,-6.4798,-6.5036,-6.5043,-6.5048,-6.5151,0,0,0,0,0,0,-6.4712,-6.4726,-6.4766,-6.4768,-6.4778,-6.4876,-6.4791,-6.4785,-6.4805,-6.4796,-6.48,-6.4797,-6.4773,-6.4846,-6.4857,-6.4913,-6.4802,-6.5031,-6.5039,-6.5046,-6.5142,-6.516,-6.5175,0,0,0,0,0,-6.4708,-6.4793,-6.4768,-6.478,-6.4828,-6.4879,-6.4885,-6.4856,-6.481,-6.4849,-6.4841,-6.4797,-6.4901,-6.4854,-6.4865,-6.4923,-6.5028,-6.5037,-6.5046,-6.5135,-6.5156,-6.5174,0,0,0,0,0,0,-6.4797,-6.4793,-6.4765,-6.4854,-6.4868,-6.4865,-6.4914,-6.488,-6.4906,-6.4896,-6.4859,-6.486,-6.4937,-6.4937,-6.4885,-6.5023,-6.4956,-6.4968,-6.502,-6.504,-6.5056,-6.5054,-6.4805,0,0,0,0,0,-6.4827,-6.4871,-6.4864,-6.4943,-6.4952,-6.4932,-6.4953,-6.493,-6.4942,-6.4948,-6.4944,-6.4957,-6.4992,-6.5016,-6.5048,-6.5142,-6.5141,-6.5188,-6.5204,-6.5217,-6.5227,-6.5277,-6.5297,-6.5081,-6.508,-6.508,0,0,-6.489,-6.4893,-6.4922,-6.4961,-6.4969,-6.5014,-6.4937,-6.4988,-6.502,-6.4955,-6.5021,-6.5019,-6.503,-6.5113,-6.5149,-6.5116,-6.5287,-6.5229,-6.5239,-6.5243,-6.5288,-6.5309,-6.5327,-6.5087,-6.5086,-6.5085,0,0,-6.5026,-6.5034,-6.51,-6.511,-6.5124,-6.511,-6.5126,-6.5129,-6.5126,-6.5192,-6.5143,-6.5181,-6.5242,-6.5253,-6.5266,-6.5407,-6.5368,-6.5418,-6.5502,-6.5551,-6.5568,-6.5583,-6.5633,-6.5651,-6.5429,-6.5429,-6.5429,0,-6.5102,-6.5169,-6.5138,-6.5193,-6.5211,-6.5155,-6.5221,-6.5231,-6.5254,-6.5268,-6.523,-6.5306,-6.531,-6.5394,-6.5428,-6.5441,-6.5457,-6.5417,-6.5568,-6.5583,-6.5596,-6.5643,-6.5662,-6.5435,-6.5434,-6.5434,-6.5433,0,-6.5261,-6.5308,-6.536,-6.5385,-6.5409,-6.5469,-6.5446,-6.5474,-6.5448,-6.5439,-6.5506,-6.5509,-6.554,-6.5558,-6.5534,-6.5639,-6.5617,-6.5575,-6.5507,-6.5623,-6.5667,-6.5685,-6.5444,-6.5442,-6.544,-6.5438,0,0,-6.5455,-6.5462,-6.5482,-6.5492,-6.5503,-6.5538,-6.5595,-6.5627,-6.5651,-6.5669,-6.5715,-6.5769,-6.5729,-6.5745,-6.572,-6.5763,-6.5874,-6.5715,-6.5714,-6.5744,-6.599,-6.6022,-6.6043,-6.5849,-6.5852,-6.5855,-6.5989,0,-6.5589,-6.5688,-6.5662,-6.5761,-6.5803,-6.575,-6.58,-6.5811,-6.5804,-6.5838,-6.5828,-6.5867,-6.5812,-6.5821,-6.5861,-6.5853,-6.5923,-6.5842,-6.589,-6.5892,-6.5889,-6.6066,-6.61,-6.6226,-6.6006,-6.6008,-6.601,0,-6.5759,-6.5785,-6.5888,-6.5892,-6.5909,-6.5954,-6.5981,-6.6014,-6.6026,-6.6017,-6.6035,-6.6002,-6.6057,-6.5989,-6.6064,-6.601,-6.6028,-6.6026,-6.603,-6.6033,-6.5958,-6.6073,-6.6266,-6.6285,-6.6037,-6.6035,-6.6033,0,-6.589,-6.595,-6.6019,-6.603,-6.6036,-6.6069,-6.6073,-6.6081,-6.6102,-6.6125,-6.6137,-6.6166,-6.6182,-6.6205,-6.618,-6.6133,-6.6259,-6.6189,-6.6252,-6.6253,-6.628,-6.6279,-6.6478,-6.6293,-6.6293,-6.6292,-6.6292,0,-6.6042,-6.6107,-6.6078,-6.612,-6.6191,-6.616,-6.6231,-6.6228,-6.6236,-6.6276,-6.6232,-6.627,-6.6236,-6.6271,-6.6252,-6.6317,-6.6324,-6.6318,-6.6312,-6.6322,-6.6323,-6.6333,-6.6323,-6.6297,-6.6296,-6.6295,-6.6295,0,-6.62,-6.6183,-6.6255,-6.6255,-6.6257,-6.6309,-6.6309,-6.6347,-6.6337,-6.6388,-6.6398,-6.6381,-6.642,-6.6398,-6.6438,-6.6426,-6.6509,-6.6492,-6.6506,-6.6501,-6.6565,-6.6559,-6.6778,-6.6804,-6.6603,-6.6605,-6.6606,0,-6.6298,-6.6347,-6.6353,-6.6378,-6.6385,-6.6425,-6.6446,-6.6417,-6.644,-6.6457,-6.6494,-6.653,-6.6556,-6.6621,-6.6612,-6.6642,-6.6624,-6.6698,-6.6628,-6.6636,-6.6624,-6.6622,-6.6626,-6.6712,-6.6715,-6.6717,-6.6718,0,-6.6474,-6.6464,-6.6497,-6.6527,-6.6554,-6.6576,-6.6594,-6.6616,-6.6587,-6.6616,-6.6656,-6.6677,-6.6718,-6.6754,-6.678,-6.6782,-6.6746,-6.6741,-6.6757,-6.6767,-6.6773,-6.677,-6.6544,-6.6736,-6.6734,-6.6733,-6.6732,-6.6731,-6.6605,-6.6646,-6.6657,-6.6695,-6.6705,-6.6724,-6.676,-6.6754,-6.6788,-6.682,-6.68,-6.6847,-6.6857,-6.6888,-6.6895,-6.6931,-6.69,-6.6924,-6.693,-6.6936,-6.6944,-6.6768,-6.6935,-6.6935,-6.6934,-6.6934,-6.6933,0,-6.6778,-6.6783,-6.6818,-6.6846,-6.6875,-6.684,-6.6858,-6.6885,-6.6927,-6.694,-6.6967,-6.7013,-6.7047,-6.7041,-6.7072,-6.7101,-6.7085,-6.711,-6.7107,-6.7108,-6.697,-6.6953,-6.7123,-6.7123,-6.7123,-6.7123,-6.7123,-6.7123,-6.6872,-6.6939,-6.693,-6.7002,-6.7005,-6.7052,-6.7065,-6.7081,-6.7091,-6.7145,-6.7173,-6.7169,-6.7174,-6.7205,-6.7234,-6.7231,-6.7244,-6.7276,-6.7267,-6.7137,-6.7118,-6.71,-6.7084,-6.7279,-6.7279,-6.7402,-6.7403,-6.7404]}]]